Location: Gleizolles
(44.4833°N, 6.7667°E)
Time: 12:17:45
(UTC+00:00)

Cosmos 2366 rocket - Pass Details

Date: 09 April 2020
Orbit: 955 x 997 km, 82.9° (Epoch: 26 May)

Event Time Altitude Azimuth Distance (km) Brightness Sun altitude
Rises 19:36:43 0° 357° (N) 3,646 7.4 -15.2°
Reaches altitude 10° 19:39:22 10° 4° (N) 2,696 6.6 -15.6°
Maximum altitude 19:45:12 43° 75° (ENE) 1,328 4.4 -16.5°
Enters shadow 19:48:11 26° 129° (SE) 1,793 4.8 -17.0°
